Home > Weather > Helena > Past weeks

Flag for USA Past Weather in Helena, Montana, USA — Yesterday and Last 2 Weeks

Now
71 °F

Sunny.


Feels Like: 77 °F
Forecast: 59 / 84 °F
Wind: 5 mph from Northeast

Location: Helena Regional Airport

Current Time: Aug 28, 2016 at 10:42:41 AM

Latest Report: Aug 28, 2016 at 9:53 AM


Visibility: 10 mi

Pressure: 29.97 "Hg (25.96 "Hg at 1239m altitude)

Humidity: 39%

Dew Point: 45 °F

Location of HelenaLocation

Past Weather in Helena — Graph

°F

Helena Temperature Yesterday

Maximum temperature yesterday: 87 °F (at 2:53 PM)
Minimum temperature yesterday: 54 °F (at 3:53 AM)
Average temperature yesterday: 70 °F

High & Low Weather Summary for the Past Weeks

 TemperatureHumidityPressure
High94 °F (Aug 16, 4:53 PM)90% (Aug 18, 8:53 PM)30.37 "Hg (Aug 18, 8:53 PM)
Low44 °F (Aug 25, 4:53 AM)9% (Aug 21, 5:53 PM)29.68 "Hg (Aug 21, 6:53 PM)
Average68 °F40%30.03 "Hg
* Reported Aug 13 8:53 AM — Aug 28 8:53 AM, Helena, Weather by CustomWeather, © 2016

Note: Actual official high and low records may vary slightly from our data, if they occured in-between our weather recording intervals... More about our weather records

Advertising

Helena Weather History for the Previous 24 Hours

Scroll right to see more
 ConditionsComfort  
Time TempWeatherWind HumidityBarometerVisibility
8:53 AM
Sun, Aug 28
71 °FSunny.7 mph34%29.97 "Hg10 mi
7:53 AM65 °FSunny.No wind42%29.98 "Hg10 mi
6:53 AM61 °FClear.5 mph46%29.95 "Hg10 mi
5:53 AM68 °FClear.6 mph35%29.90 "Hg10 mi
4:53 AM65 °FClear.7 mph40%29.90 "Hg10 mi
3:53 AM73 °FClear.13 mph27%29.85 "Hg10 mi
2:53 AM67 °FClear.5 mph36%29.85 "Hg7 mi
1:53 AM68 °FClear.5 mph35%29.83 "Hg6 mi
12:53 AM70 °FClear.No wind32%29.81 "Hg6 mi
11:53 PM
Sat, Aug 27
75 °FClear.5 mph24%29.78 "Hg6 mi
10:53 PM74 °FHaze.8 mph25%29.80 "Hg6 mi
9:53 PM78 °FClear.6 mph21%29.79 "Hg6 mi
8:53 PM78 °FSunny.9 mph20%29.79 "Hg7 mi
7:53 PM81 °FSunny.13 mph19%29.74 "Hg10 mi
6:53 PM84 °FSunny.10 mph18%29.75 "Hg10 mi
5:53 PM84 °FSunny.9 mph19%29.76 "Hg10 mi
4:53 PM83 °FSunny.12 mph19%29.74 "Hg10 mi
3:53 PM86 °FPassing clouds.7 mph17%29.74 "Hg10 mi
2:53 PM87 °FSunny.16 mph16%29.75 "Hg10 mi
1:53 PM84 °FSunny.14 mph17%29.77 "Hg10 mi
12:53 PM79 °FSunny.No wind24%29.81 "Hg10 mi
11:53 AM73 °FSunny.3 mph30%29.85 "Hg10 mi
10:53 AM65 °FSunny.No wind39%29.89 "Hg10 mi
Weather by CustomWeather, © 2016

See weather overviewHow to use our weather pages